Starlink 35893

operational
NORAD ID: 66565 Int'l Des: 2025-268 Owner: SPXS Country: US Constellation: starlink
LEOCIRCULAR

Starlink 35893について

説明を読み込み中...

リアルタイム位置

3D地球を読み込み中...

次回通過

高度履歴

Altitude vs Time

uPlot chart will show altitude changes over time

軌道要素

1 66565U 25268J 26062.29174970 .00031832 00000-0 11599-2 0 9990
2 66565 43.0029 22.9889 0001252 271.3726 88.6982 15.27619357 16985
Epoch: Mar 3, 2026 • Age: 42 hours

現在のステータス

高度 485.8 km
速度 7.63 km/s
衛星直下点 39.60°N, 6.83°E
打ち上げ日 Nov 21, 2025
運用期間 0.2 years
タイプ internet

技術仕様

分類 Payload
質量 575.00 kg
乾燥質量 530.00 kg
総質量 575.00 kg
長さ 0.30 m
直径 4.10 m
スパン 29.00 m
形状 Box + pan
製造者 SPXS
バスタイプ Starlink V2MO
フェーズステータス In Orbit
所有者/国 SPXS/US

大規模コンステレーション

Loading constellations...